Date,TemperatureHighF,TemperatureAvgF,TemperatureLowF,DewpointHighF,DewpointAvgF,DewpointLowF,HumidityHigh,HumidityAvg,HumidityLow,PressureMaxIn,PressureMinIn,WindSpeedMaxMPH,WindSpeedAvgMPH,GustSpeedMaxMPH,PrecipitationSumIn
2014-1-1,50,33,25,22,17,12,65,52,32,0.00,40.00,6,2,16,0.00
2014-1-2,35,31,28,34,24,17,98,76,58,0.00,40.00,8,2,18,0.08
2014-1-3,23,15,10,10,-1,-6,60,50,30,0.00,40.00,13,6,30,0.01
2014-1-4,35,20,9,9,3,-100,65,50,32,0.00,40.00,5,2,12,0.00
2014-1-5,40,32,24,40,27,9,99,81,51,0.00,40.00,7,2,15,0.05
2014-1-6,40,23,-2,40,11,-19,99,63,39,0.00,40.00,10,6,30,0.10
2014-1-7,14,4,-5,-10,-16,-21,47,39,29,0.00,40.00,8,5,25,0.02
2014-1-8,35,19,6,9,-2,-11,49,41,28,0.00,40.00,6,3,16,0.00
2014-1-9,46,33,27,14,10,6,50,39,24,0.00,40.00,5,2,9,0.00
2014-1-10,38,35,30,38,30,12,99,85,42,0.00,40.00,3,1,6,0.45
2014-1-11,52,44,37,52,40,-100,99,92,65,0.00,40.00,8,4,21,0.62
2014-1-12,49,41,35,29,26,22,68,56,42,0.00,40.00,13,6,31,0.04
2014-1-13,52,41,31,37,29,24,86,62,41,0.00,40.00,6,3,14,0.01
2014-1-14,46,41,37,42,36,27,99,83,57,0.00,40.00,7,3,15,0.23
2014-1-15,38,33,29,30,26,18,88,73,61,0.00,40.00,7,3,15,0.01
2014-1-16,38,28,18,15,12,9,67,53,39,0.00,40.00,5,3,14,0.00
2014-1-17,47,35,26,30,19,12,89,55,31,0.00,40.00,7,4,21,0.00
2014-1-18,27,20,15,18,5,-100,69,54,42,0.00,40.00,7,4,21,0.02
2014-1-19,37,30,20,25,19,11,84,66,48,0.00,40.00,11,5,27,0.01
2014-1-20,53,42,35,23,19,14,55,40,27,0.00,40.00,9,6,25,0.01
2014-1-21,37,28,14,29,23,5,96,81,57,0.00,40.00,9,4,23,0.00
2014-1-22,21,12,3,4,-7,-14,66,45,23,0.00,40.00,6,4,21,0.08
2014-1-23,20,11,2,6,-4,-11,73,50,31,0.00,40.00,8,5,23,0.01
2014-1-24,20,8,-1,-6,-10,-15,61,44,26,0.00,40.00,9,4,19,0.00
2014-1-25,31,20,9,20,5,-100,85,57,41,0.00,40.00,11,6,33,0.00
2014-1-26,34,24,12,15,1,-8,50,37,23,0.00,40.00,10,5,25,0.03
2014-1-27,44,31,11,28,10,-11,59,43,24,0.00,40.00,12,6,29,0.17
2014-1-28,16,10,5,6,-7,-19,85,50,26,0.00,40.00,6,2,18,0.05
2014-1-29,26,13,3,6,-10,-18,84,38,19,0.00,40.00,6,4,20,0.04
2014-1-30,33,19,3,1,-6,-14,46,33,21,0.00,40.00,4,2,10,0.01
2014-1-31,47,33,19,19,6,0,50,34,17,0.00,40.00,9,3,20,0.00
2014-2-1,53,39,30,23,16,-100,61,41,23,0.00,40.00,8,3,17,0.00
2014-2-2,57,48,41,45,32,15,81,56,34,0.00,40.00,7,3,20,0.00
2014-2-3,48,39,34,47,37,30,99,94,80,0.00,40.00,6,3,14,1.84
2014-2-4,34,32,30,33,32,29,98,98,95,0.00,40.00,5,2,10,0.02
2014-2-5,49,34,26,36,29,16,98,83,55,0.00,40.00,10,4,25,0.37
2014-2-6,36,28,22,18,15,10,67,58,46,0.00,40.00,8,4,16,0.07
2014-2-7,39,28,21,17,14,11,74,57,39,0.00,40.00,5,3,15,0.00
2014-2-8,36,30,24,27,21,12,77,68,59,0.00,40.00,4,2,9,0.00
2014-2-9,39,36,31,33,28,21,82,73,65,0.00,40.00,9,5,21,0.00
2014-2-10,34,28,19,20,10,5,66,50,30,0.00,40.00,7,4,18,0.00
2014-2-11,38,24,13,9,6,0,71,48,24,0.00,40.00,4,3,9,0.00
2014-2-12,24,19,14,18,8,4,91,65,48,0.00,40.00,4,3,8,0.00
2014-2-13,32,25,20,31,23,18,96,89,65,0.00,40.00,11,6,30,0.00
2014-2-14,50,40,31,28,18,13,67,44,24,0.00,40.00,10,6,26,0.31
2014-2-15,35,27,19,33,16,-100,98,67,43,0.00,40.00,10,5,28,0.26
2014-2-16,35,26,18,23,15,9,69,63,52,0.00,40.00,11,5,24,0.02
2014-2-17,41,28,17,25,14,10,92,59,36,0.00,40.00,6,3,12,0.00
2014-2-18,56,41,25,27,19,10,94,49,17,0.00,40.00,9,5,25,0.07
2014-2-19,60,47,36,44,28,14,95,51,30,0.00,40.00,12,5,33,0.10
2014-2-20,51,42,35,32,26,18,72,53,35,0.00,40.00,6,2,12,0.01
2014-2-21,53,47,42,53,32,13,99,63,24,0.00,40.00,14,5,31,0.48
2014-2-22,60,47,39,16,12,-100,35,25,17,0.00,40.00,8,4,22,0.03
2014-2-23,65,49,39,30,21,14,61,35,19,0.00,40.00,10,5,27,0.00
2014-2-24,43,34,28,32,9,-1,74,38,17,0.00,40.00,9,6,20,0.00
2014-2-25,39,30,26,16,10,4,54,41,35,0.00,40.00,8,4,19,0.00
2014-2-26,34,27,18,15,8,-3,67,47,23,0.00,40.00,6,4,21,0.00
2014-2-27,37,25,17,4,0,-4,54,35,19,0.00,40.00,10,6,28,0.00
2014-2-28,38,24,10,6,2,-6,52,39,26,0.00,40.00,6,3,14,0.00
2014-3-1,48,33,19,26,12,-100,51,43,30,0.00,40.00,5,3,13,0.00
2014-3-2,63,48,37,52,38,19,100,71,44,0.00,40.00,9,4,23,0.26
2014-3-3,48,25,11,48,23,8,100,91,82,0.00,40.00,8,5,17,0.56
2014-3-4,35,17,4,22,11,0,86,77,55,0.00,40.00,4,2,8,0.35
2014-3-5,53,33,20,29,20,14,85,61,32,0.00,40.00,4,2,11,0.01
2014-3-6,36,30,23,18,14,10,67,52,39,0.00,40.00,6,4,12,0.00
2014-3-7,48,34,24,34,28,17,97,78,56,0.00,40.00,5,3,10,0.00
2014-3-8,63,46,33,37,28,-100,90,56,27,0.00,40.00,7,3,18,0.00
2014-3-9,52,45,41,33,26,17,68,49,29,0.00,40.00,8,5,22,0.00
2014-3-10,68,51,40,28,25,22,54,38,18,0.00,40.00,7,4,21,0.00
2014-3-11,71,59,52,39,33,27,51,39,27,0.00,40.00,6,4,18,0.00
2014-3-12,59,48,29,52,35,20,88,62,38,0.00,40.00,11,5,27,0.16
2014-3-13,32,24,15,20,3,-3,73,42,24,0.00,40.00,9,6,25,0.02
2014-3-14,60,41,23,21,13,4,47,33,21,0.00,40.00,11,4,21,0.00
2014-3-15,61,53,46,33,24,-100,50,34,20,0.00,40.00,10,6,24,0.00
2014-3-16,46,38,28,32,26,21,99,64,36,0.00,40.00,8,3,16,0.05
2014-3-17,31,26,22,26,22,-100,97,89,80,0.00,40.00,5,3,12,0.04
2014-3-18,42,33,24,31,28,23,96,83,62,0.00,40.00,4,2,8,0.46
2014-3-19,41,34,31,39,34,30,100,97,90,0.00,40.00,4,2,9,0.37
2014-3-20,55,44,37,39,24,-100,100,49,23,0.00,40.00,8,6,21,0.01
2014-3-21,66,50,41,29,21,-100,48,34,20,0.00,40.00,10,5,21,0.00
2014-3-22,68,56,50,29,18,-100,34,24,13,0.00,40.00,9,5,25,0.00
2014-3-23,48,41,33,29,24,16,67,51,32,0.00,40.00,7,4,17,0.00
2014-3-24,45,38,33,9,2,-5,30,22,14,0.00,40.00,8,4,20,0.00
2014-3-25,38,30,26,32,20,3,94,66,28,0.00,40.00,7,3,19,0.22
2014-3-26,35,26,19,19,8,3,75,46,27,0.00,40.00,8,6,24,0.02
2014-3-27,51,36,21,19,13,5,64,40,27,0.00,40.00,9,4,17,0.00
2014-3-28,60,48,37,54,41,19,100,80,36,0.00,40.00,7,4,18,0.26
2014-3-29,52,49,46,52,46,-100,100,96,89,0.00,40.00,5,2,17,0.82
2014-3-30,42,37,32,39,29,22,95,72,49,0.00,40.00,10,8,30,0.91
2014-3-31,68,50,36,24,19,15,48,31,17,0.00,40.00,10,5,24,0.02
2014-4-1,77,61,43,36,27,22,44,29,17,0.00,40.00,10,3,24,0.00
2014-4-2,79,65,51,41,35,27,50,34,24,0.00,40.00,6,2,16,0.00
2014-4-3,69,59,50,52,47,36,96,67,44,0.00,40.00,5,3,15,0.11
2014-4-4,68,59,51,60,54,47,100,85,51,0.00,40.00,10,4,23,0.41
2014-4-5,56,47,40,48,28,-100,75,51,33,0.00,40.00,8,5,21,0.11
2014-4-6,63,46,30,30,26,21,77,48,29,0.00,40.00,5,3,15,0.00
2014-4-7,49,45,41,47,41,26,100,91,40,0.00,40.00,5,2,11,0.64
2014-4-8,55,49,45,51,39,32,100,69,48,0.00,40.00,9,5,24,0.02
2014-4-9,60,49,41,37,31,25,70,51,37,0.00,40.00,7,4,16,0.00
2014-4-10,73,57,40,33,29,23,50,36,21,0.00,40.00,8,5,18,0.00
2014-4-11,79,64,52,52,39,31,78,43,22,0.00,40.00,9,5,22,0.03
2014-4-12,73,60,51,52,45,-100,86,63,34,0.00,40.00,7,3,16,0.03
2014-4-13,84,68,55,50,47,44,67,49,28,0.00,40.00,8,4,17,0.00
2014-4-14,72,63,58,54,52,49,78,67,50,0.00,40.00,9,5,21,0.00
2014-4-15,59,46,28,59,42,14,100,84,55,0.00,40.00,8,5,32,0.91
2014-4-16,53,37,23,21,15,10,61,43,25,0.00,40.00,6,4,20,0.01
2014-4-17,60,43,30,25,18,13,50,38,24,0.00,40.00,4,2,11,0.00
2014-4-18,59,46,35,36,31,21,75,56,42,0.00,40.00,4,2,12,0.00
2014-4-19,65,53,43,41,36,-100,77,54,36,0.00,40.00,7,3,14,0.00
2014-4-20,67,55,46,38,28,20,58,37,18,0.00,40.00,6,4,14,0.00
2014-4-21,81,59,41,38,32,28,63,39,16,0.00,40.00,5,3,14,0.00
2014-4-22,70,62,54,52,42,31,75,48,37,0.00,40.00,7,4,22,0.01
2014-4-23,61,52,44,34,28,24,57,40,27,0.00,40.00,11,7,25,0.01
2014-4-24,68,52,40,30,24,14,61,38,12,0.00,40.00,5,3,14,0.00
2014-4-25,58,54,49,57,42,29,100,69,38,0.00,40.00,7,3,21,0.81
2014-4-26,76,61,49,43,38,34,65,46,26,0.00,40.00,8,6,23,0.03
2014-4-28,48,48,48,48,48,48,100,100,100,0.00,40.00,2,1,6,0.00
2014-4-29,48,47,45,48,47,45,100,100,98,0.00,40.00,4,3,11,1.17
2014-4-30,60,53,48,60,52,48,100,100,97,0.00,40.00,4,2,8,0.20
2014-5-1,72,61,53,55,46,34,93,62,32,0.00,40.00,10,5,21,0.08
2014-5-2,68,56,46,35,32,30,59,42,25,0.00,40.00,8,4,19,0.00
2014-5-3,71,57,47,38,33,-100,60,42,26,0.00,40.00,8,4,24,0.00
2014-5-4,75,64,53,44,36,29,57,36,24,0.00,40.00,8,6,26,0.00
2014-5-5,58,53,49,52,41,28,98,68,39,0.00,40.00,7,2,17,0.28
2014-5-6,82,62,50,58,52,48,100,74,32,0.00,40.00,5,2,12,0.21
2014-5-13,80,72,67,61,60,59,80,68,52,0.00,40.00,4,2,9,0.00
2014-5-14,83,69,61,66,62,57,96,80,49,0.00,40.00,8,2,17,0.11
2014-5-15,66,62,53,64,61,51,100,94,84,0.00,40.00,6,3,16,1.61
2014-5-16,67,53,47,49,42,37,92,69,39,0.00,40.00,8,5,26,0.82
2014-5-17,64,50,42,39,34,-100,82,57,29,0.00,40.00,7,4,21,0.00
2014-5-18,67,52,40,43,36,31,84,57,29,0.00,40.00,5,2,11,0.00
2014-5-19,69,54,42,44,34,-100,74,51,33,0.00,40.00,4,2,11,0.00
2014-5-20,80,62,48,55,47,-100,90,63,31,0.00,40.00,6,2,15,0.00
2014-5-21,81,71,60,60,56,52,79,62,44,0.00,40.00,5,3,14,0.00
2014-5-22,82,71,64,60,54,-100,79,59,42,0.00,40.00,5,4,22,0.00
2014-5-23,79,67,57,54,47,39,76,51,25,0.00,40.00,6,3,16,0.00
2014-5-24,78,63,50,48,42,-100,73,51,31,0.00,40.00,5,3,14,0.00
2014-5-25,79,65,50,53,49,44,86,58,35,0.00,40.00,4,2,11,0.00
2014-5-26,87,71,55,61,54,50,97,60,29,0.00,40.00,6,2,15,0.00
2014-5-27,87,72,64,75,62,54,91,70,47,0.00,40.00,6,3,19,0.24
2014-5-28,84,72,65,68,62,58,89,71,49,0.00,40.00,5,3,16,0.16
2014-5-29,72,64,60,67,62,59,100,94,79,0.00,40.00,5,2,12,0.86
2014-5-30,79,66,61,68,62,59,100,89,59,0.00,40.00,4,2,10,0.01
2014-5-31,80,66,52,59,54,-100,99,70,45,0.00,40.00,3,2,10,0.01
2014-6-1,76,64,55,57,52,47,80,66,52,0.00,40.00,7,2,12,0.00
2014-6-2,82,74,64,65,61,57,81,66,54,0.00,40.00,4,3,9,0.00
2014-6-3,82,69,61,68,60,56,90,75,51,0.00,40.00,4,2,12,0.00
2014-6-4,82,72,64,66,63,60,100,76,58,0.00,40.00,6,2,19,0.25
2014-6-5,76,68,58,65,58,48,100,72,46,0.00,40.00,6,4,17,0.54
2014-6-6,83,66,50,58,51,47,97,61,31,0.00,40.00,4,2,9,0.17
2014-6-7,82,68,57,62,54,-100,83,64,49,0.00,40.00,3,2,8,0.00
2014-6-8,77,68,61,70,64,60,100,87,70,0.00,40.00,5,2,12,0.27
2014-6-9,83,70,60,66,61,55,100,76,45,0.00,40.00,4,2,15,0.27
2014-6-10,86,74,62,69,63,58,96,69,48,0.00,40.00,5,2,12,0.00
2014-6-11,84,70,60,71,64,60,99,83,59,0.00,40.00,5,2,14,0.63
2014-6-12,78,67,63,71,65,63,100,94,73,0.00,40.00,5,2,12,0.74
2014-6-13,83,70,62,68,62,56,100,80,53,0.00,40.00,4,2,16,0.03
2014-6-14,81,67,56,58,48,-100,85,56,28,0.00,40.00,5,3,19,0.03
2014-6-15,84,68,51,64,57,47,94,70,51,0.00,40.00,4,2,10,0.00
2014-6-16,88,74,62,71,64,56,99,73,48,0.00,40.00,3,1,7,0.00
2014-6-17,89,77,64,71,64,59,92,67,50,0.00,40.00,4,2,11,0.00
2014-6-18,92,81,73,68,63,58,72,57,40,0.00,40.00,5,3,14,0.00
2014-6-19,85,76,69,72,63,57,79,66,53,0.00,40.00,4,3,14,0.00
2014-6-20,88,72,64,73,66,62,99,82,57,0.00,40.00,7,2,16,0.52
2014-6-21,86,72,64,72,63,-100,100,79,47,0.00,40.00,4,2,11,0.52
2014-6-22,85,72,64,69,65,61,98,81,53,0.00,40.00,3,2,9,0.03
2014-6-23,77,67,62,68,64,62,100,92,69,0.00,40.00,5,2,9,0.03
2014-6-24,84,73,63,70,66,59,95,77,63,0.00,40.00,5,3,12,0.00
2014-6-25,83,72,65,72,66,62,99,83,61,0.00,40.00,4,2,12,0.01
2014-6-26,87,75,67,68,62,57,86,67,44,0.00,40.00,4,2,12,0.01
2014-6-27,88,74,61,68,62,59,94,69,40,0.00,40.00,4,1,10,0.00
2014-6-28,80,70,66,71,63,-100,98,83,65,0.00,40.00,3,1,7,0.07
2014-6-29,72,66,62,65,61,57,96,86,67,0.00,40.00,4,2,10,0.07
2014-6-30,89,72,58,69,64,58,99,80,50,0.00,40.00,5,2,12,0.01
2014-7-1,90,77,66,74,69,65,99,78,49,0.00,40.00,4,2,10,0.00
2014-7-2,94,78,68,72,68,60,99,73,41,0.00,40.00,5,2,12,0.21
2014-7-3,84,71,65,76,67,58,100,87,68,0.00,40.00,5,2,12,0.21
2014-7-4,77,69,60,58,52,43,78,57,34,0.00,40.00,6,3,14,0.01
2014-7-5,81,64,50,53,45,-100,85,54,30,0.00,40.00,4,2,10,0.00
2014-7-6,85,70,54,61,54,46,84,58,37,0.00,40.00,5,2,12,0.00
2014-7-7,88,75,64,65,57,53,72,55,42,0.00,40.00,8,3,16,0.00
2014-7-8,90,76,67,69,61,55,89,62,39,0.00,40.00,7,4,24,0.04
2014-7-9,83,74,68,70,63,59,90,72,46,0.00,40.00,5,3,14,0.05
2014-7-10,85,72,62,68,61,57,99,71,47,0.00,40.00,4,2,10,0.17
2014-7-11,84,69,57,69,63,57,100,82,54,0.00,40.00,3,2,7,0.18
2014-7-12,87,73,64,71,64,63,98,76,54,0.00,40.00,5,2,13,0.00
2014-7-13,92,77,66,73,68,64,96,75,44,0.00,40.00,6,2,13,0.00
2014-7-14,88,77,69,74,67,62,85,71,46,0.00,40.00,4,3,14,0.01
2014-7-15,80,71,65,69,63,56,91,77,59,0.00,40.00,4,2,10,0.01
2014-7-16,80,67,55,59,51,44,88,60,35,0.00,40.00,4,2,12,0.00
2014-7-17,79,66,53,55,50,45,86,59,36,0.00,40.00,4,2,8,0.00
2014-7-18,78,66,60,63,57,48,97,72,57,0.00,40.00,3,1,8,0.05
2014-7-19,71,63,61,64,61,59,99,94,74,0.00,40.00,2,1,4,0.29
2014-7-20,72,64,59,65,62,59,100,93,79,0.00,40.00,2,0,5,0.05
2014-7-21,83,70,63,70,66,62,99,85,60,0.00,40.00,2,1,6,0.00
2014-7-22,89,75,67,72,67,64,99,78,50,0.00,40.00,4,2,10,0.00
2014-7-23,91,75,66,73,66,62,98,78,43,0.00,40.00,4,2,11,0.00
2014-7-24,77,68,65,70,66,63,99,92,70,0.00,40.00,3,2,10,0.29
2014-7-25,83,68,59,64,59,53,97,75,49,0.00,40.00,4,2,8,0.01
2014-7-26,88,72,63,68,61,57,98,70,39,0.00,40.00,4,2,10,0.00
2014-7-27,79,70,64,70,66,59,99,86,70,0.00,40.00,7,3,22,0.34
2014-7-28,78,67,59,65,58,53,98,74,49,0.00,40.00,6,4,23,0.33
2014-7-29,73,62,53,57,53,49,96,76,51,0.00,40.00,4,2,11,0.04
2014-7-30,72,61,50,57,52,49,97,74,47,0.00,40.00,3,1,7,0.00
2014-7-31,82,66,54,62,56,51,98,73,38,0.00,40.00,4,2,11,0.01
2014-8-1,74,64,60,64,60,54,99,89,62,0.00,40.00,3,1,7,0.22
2014-8-2,78,67,61,67,61,58,98,83,61,0.00,40.00,4,2,11,0.06
2014-8-3,83,69,58,62,58,54,99,72,41,0.00,40.00,4,2,8,0.01
2014-8-4,84,70,57,64,58,55,94,68,42,0.00,40.00,4,1,7,0.00
2014-8-5,87,71,62,68,61,56,97,74,35,0.00,40.00,3,1,9,0.00
2014-8-6,82,71,62,69,62,58,92,74,54,0.00,40.00,4,1,10,0.05
2014-8-7,85,78,68,62,57,53,66,51,33,0.00,40.00,4,2,11,0.00
2014-8-8,72,67,60,65,59,52,94,77,62,0.00,40.00,4,2,8,0.00
2014-8-9,68,64,63,67,63,62,99,95,93,0.00,40.00,4,2,7,0.17
2014-8-10,69,64,63,67,63,62,100,97,87,0.00,40.00,2,1,5,0.05
2014-8-11,65,63,61,64,62,60,100,98,93,0.00,40.00,2,1,4,0.75
2014-8-12,78,68,62,74,66,59,100,95,76,0.00,40.00,6,2,16,0.76
2014-8-13,75,65,58,62,56,51,88,75,53,0.00,40.00,6,3,17,0.01
2014-8-14,75,63,54,62,54,50,96,73,50,0.00,40.00,4,2,14,0.00
2014-8-15,78,64,54,60,54,48,99,72,42,0.00,40.00,5,2,11,0.00
2014-8-16,81,62,51,59,51,49,97,70,41,0.00,40.00,5,1,12,0.00
2014-8-17,78,70,65,65,60,51,86,69,55,0.00,40.00,4,2,12,0.00
2014-8-18,72,67,64,69,65,61,99,92,81,0.00,40.00,3,1,5,0.25
2014-8-19,83,70,64,73,68,64,100,93,71,0.00,40.00,3,1,10,0.77
2014-8-20,80,70,61,73,65,61,100,88,68,0.00,40.00,4,2,10,0.68
2014-8-21,83,71,65,72,66,63,99,85,64,0.00,40.00,5,2,14,0.18
2014-8-22,83,72,65,72,68,65,100,89,70,0.00,40.00,4,2,12,0.20
2014-8-23,83,70,67,72,67,66,99,90,68,0.00,40.00,6,2,12,0.25
2014-8-24,71,65,62,65,63,60,99,92,75,0.00,40.00,3,2,9,0.30
2014-8-25,77,65,56,61,57,54,99,77,49,0.00,40.00,4,2,8,0.01
2014-8-26,82,64,53,62,56,52,99,77,41,0.00,40.00,3,1,6,0.00
2014-8-27,86,70,55,66,61,55,99,77,46,0.00,40.00,4,1,9,0.00
2014-8-28,88,76,67,68,62,53,90,64,38,0.00,40.00,3,2,12,0.00
2014-8-29,82,69,59,63,58,54,88,69,50,0.00,40.00,4,2,10,0.00
2014-8-30,87,72,66,72,66,62,94,80,59,0.00,40.00,6,2,12,0.00
2014-8-31,85,73,67,72,68,65,99,87,54,0.00,40.00,5,2,12,0.08
2014-9-1,87,75,66,69,66,60,96,75,50,0.00,40.00,5,3,16,0.08
2014-9-2,89,74,66,70,66,63,98,78,45,0.00,40.00,6,3,16,0.11
2014-9-3,82,71,64,72,66,62,99,84,60,0.00,40.00,4,2,10,0.16
2014-9-4,83,72,65,72,68,64,99,85,62,0.00,40.00,4,2,11,0.01
2014-9-5,88,72,67,72,68,66,99,88,54,0.00,40.00,5,2,10,0.00
2014-9-6,83,68,65,72,65,64,99,91,53,0.00,40.00,4,2,10,0.21
2014-9-7,71,65,61,65,61,56,99,86,69,0.00,40.00,4,2,10,0.22
2014-9-8,67,61,56,60,56,50,98,85,68,0.00,40.00,3,2,9,0.07
2014-9-9,75,66,59,63,60,55,92,81,63,0.00,40.00,4,2,8,0.07
2014-9-10,72,67,63,66,64,62,98,90,75,0.00,40.00,6,3,12,0.00
2014-9-11,82,71,63,70,65,62,99,82,59,0.00,40.00,6,3,19,0.00
2014-9-12,77,69,64,67,64,62,98,85,71,0.00,40.00,5,2,10,0.03
2014-9-13,70,61,52,64,57,47,100,88,61,0.00,40.00,5,2,12,0.61
2014-9-14,60,54,47,55,50,46,98,86,68,0.00,40.00,5,1,9,0.01
2014-9-15,72,60,51,62,56,51,99,89,64,0.00,40.00,4,2,9,0.00
2014-9-16,73,64,56,60,55,49,96,72,57,0.00,40.00,6,3,15,0.00
2014-9-17,69,60,53,56,51,48,86,75,55,0.00,40.00,4,2,10,0.00
2014-9-18,74,61,51,59,54,50,99,81,54,0.00,40.00,4,1,7,0.00
2014-9-19,62,58,55,57,53,48,97,82,69,0.00,40.00,3,2,6,0.00
2014-9-20,77,64,55,60,55,53,98,76,46,0.00,40.00,5,2,14,0.00
2014-9-21,81,65,54,63,57,47,98,78,52,0.00,40.00,7,3,23,0.00
2014-9-22,69,59,52,49,45,42,70,59,41,0.00,40.00,5,3,17,0.00
2014-9-23,70,54,42,46,42,38,97,67,37,0.00,40.00,3,2,8,0.00
2014-9-24,68,57,50,53,45,38,84,65,47,0.00,40.00,6,3,12,0.00
2014-9-25,73,63,56,63,55,52,89,77,57,0.00,40.00,6,3,13,0.00
2014-9-26,79,63,58,58,56,54,96,80,47,0.00,40.00,5,2,9,0.00
2014-9-27,78,62,51,58,52,48,96,72,36,0.00,40.00,5,2,9,0.00
2014-9-28,72,60,51,59,54,50,98,83,61,0.00,40.00,4,2,7,0.00
2014-9-29,75,63,56,62,58,55,98,85,60,0.00,40.00,3,1,7,0.01
2014-9-30,79,63,55,62,54,45,99,77,43,0.00,40.00,4,2,10,0.00
2014-10-1,76,62,55,59,54,50,98,78,51,0.00,40.00,5,2,12,0.00
2014-10-2,80,62,57,60,57,50,99,86,35,0.00,40.00,4,1,9,0.00
2014-10-3,74,63,61,66,61,56,99,91,68,0.00,40.00,6,3,12,0.00
2014-10-4,61,51,42,61,39,22,100,67,35,0.00,40.00,6,5,21,0.00
2014-10-5,60,44,35,34,28,23,82,56,24,0.00,40.00,6,4,21,0.00
2014-10-6,66,48,39,54,42,30,100,81,43,0.00,40.00,7,2,26,0.00
2014-10-7,65,53,47,57,52,47,100,97,74,0.00,40.00,8,3,20,0.00
2014-10-8,65,55,52,57,49,43,100,81,46,0.00,40.00,9,5,25,0.00
2014-10-9,69,52,43,48,42,35,96,73,32,0.00,40.00,5,2,14,0.00
2014-10-10,58,55,50,57,53,44,100,92,76,0.00,40.00,3,1,6,0.00
2014-10-11,59,56,53,58,56,53,100,98,93,0.00,40.00,5,2,9,0.00
2014-10-14,72,69,65,66,64,61,99,83,75,0.00,40.00,0,0,0,0.17
2014-10-15,66,59,54,66,58,52,100,93,67,0.00,40.00,0,0,0,1.39
2014-10-16,61,54,46,54,49,46,100,85,62,0.00,40.00,0,0,0,0.16
2014-10-17,71,59,52,51,48,46,84,69,42,0.00,40.00,0,0,0,0.01
2014-10-18,62,54,46,49,42,39,83,63,54,0.00,40.00,0,0,0,0.02
2014-10-19,59,48,42,39,33,29,80,59,34,0.00,40.00,0,0,0,0.02
2014-10-20,66,48,35,48,38,29,91,70,37,0.00,40.00,0,0,0,0.01
2014-10-21,58,52,47,50,44,38,91,73,61,0.00,40.00,0,0,0,0.08
2014-10-22,57,48,45,42,38,37,76,68,51,0.00,40.00,7,2,24,0.06
2014-10-23,59,49,45,42,38,36,73,67,51,0.00,40.00,7,5,25,0.00
2014-10-24,69,53,45,41,37,30,77,58,31,0.00,40.00,5,3,16,0.00
2014-10-25,71,52,40,47,38,33,84,62,32,0.00,40.00,6,3,16,0.00
2014-10-26,68,59,53,49,27,10,70,35,12,0.00,40.00,9,4,22,0.00
2014-10-27,79,57,42,45,32,20,53,40,24,0.00,40.00,5,3,12,0.00
2014-10-28,80,66,53,53,45,40,77,51,29,0.00,40.00,8,3,20,0.00
2014-10-29,67,58,49,51,44,33,90,61,39,0.00,40.00,6,3,16,0.03
2014-10-30,56,46,38,35,32,29,82,61,39,0.00,40.00,5,2,11,0.03
2014-10-31,51,40,31,40,33,28,98,80,49,0.00,40.00,4,1,9,0.11
2014-11-1,45,40,36,40,35,30,99,82,60,0.00,40.00,8,4,22,0.25
2014-11-2,45,37,31,27,21,16,75,53,33,0.00,40.00,12,6,28,0.01
2014-11-3,64,45,32,25,18,11,62,38,14,0.00,40.00,8,4,17,0.00
2014-11-4,74,59,53,29,17,5,30,20,10,0.00,40.00,6,4,19,0.00
2014-11-5,61,57,52,41,32,13,65,41,15,0.00,40.00,5,3,18,0.00
2014-11-6,63,49,42,55,44,36,100,85,51,0.00,40.00,9,5,27,0.47
2014-11-7,48,41,31,38,30,22,85,66,44,0.00,40.00,9,5,23,0.06
2014-11-8,49,37,27,32,27,21,87,67,49,0.00,40.00,6,3,13,0.00
2014-11-9,60,49,41,35,31,29,70,52,33,0.00,40.00,5,3,15,0.00
2014-11-10,64,50,37,39,35,29,73,58,37,0.00,40.00,7,3,14,0.00
2014-11-11,70,52,39,43,37,30,92,61,24,0.00,40.00,5,2,9,0.00
2014-11-12,62,50,36,44,35,25,79,60,26,0.00,40.00,6,3,22,0.00
2014-11-13,41,36,30,32,28,19,82,73,64,0.00,40.00,5,3,14,0.00